Weather History for KNMM - July, 2013

Change the Weather History Date:

Friday, July 5, 2013

  Actual Average Record
Temperature  
Mean Temperature 74 °F -  
Max Temperature 80 °F 89 °F 97 °F (2012)
Min Temperature 69 °F 69 °F 60 °F (2014)
Cooling Degree Days 10    
Growing Degree Days 24 (Base 50)    
Moisture  
Dew Point 71 °F    
Average Humidity 91    
Maximum Humidity 100    
Minimum Humidity 79    
Precipitation  
Precipitation 0.79 in - - ()
Sea Level Pressure  
Sea Level Pressure 30.05 in    
Wind  
Wind Speed 4 mph (SE)    
Max Wind Speed 14 mph    
Max Gust Speed 23 mph    
Visibility 8 miles    
Events Rain , Thunderstorm    
Averages and records for this station are not official NWS values.
T = Trace of Precipitation, MM = Missing Value Source: NWS Daily Summary

Daily Weather History Graph

Daily Weather History Graph

Search for Another Location

Airport or City:

Trip Planner

Search our weather history database for the weather conditions in past years. The results will help you decide how hot, cold, wet, or windy it might be!

Date:

Astronomy

Jul. 05, 2013 Rise Set
Actual Time 5:52 AM CDT 8:05 PM CDT
Civil Twilight 5:24 AM CDT 8:33 PM CDT
Nautical Twilight 4:49 AM CDT 9:08 PM CDT
Astronomical Twilight 4:12 AM CDT 9:45 PM CDT
Moon 3:48 AM CDT (7/5) 6:02 PM CDT (7/5)
Length of Visible Light 15h 09m
Length of Day
14h 13m
Waning Crescent, 6% of the Moon is Illuminated
Jul 5
Waning Crescent
Jul 8
New
Jul 15
First Quarter
Jul 22
Full
Jul 29
Last Quarter

Hourly Weather History & Observations

Time (CDT) Temp. Heat Index Dew Point Humidity Pressure Visibility Wind Dir Wind Speed Gust Speed Precip Events Conditions
12:11 AM 73.4 °F - 69.8 °F 88% 30.01 in 10.0 mi Calm Calm - N/A   Mostly Cloudy
12:27 AM 73.4 °F - 69.8 °F 88% 30.02 in 10.0 mi Calm Calm - N/A   Mostly Cloudy
12:56 AM 72.0 °F - 70.0 °F 93% 30.05 in 10.0 mi Calm Calm - N/A   Mostly Cloudy
1:20 AM 71.6 °F - 69.8 °F 94% 30.01 in 10.0 mi Calm Calm - N/A   Mostly Cloudy
1:56 AM 72.0 °F - 69.1 °F 91% 30.04 in 10.0 mi SSW 4.6 mph - N/A   Mostly Cloudy
2:41 AM 71.6 °F - 69.8 °F 94% 30.00 in 10.0 mi Calm Calm - N/A   Scattered Clouds
2:56 AM 71.1 °F - 69.1 °F 93% 30.03 in 10.0 mi ESE 3.5 mph - N/A   Partly Cloudy
3:56 AM 71.1 °F - 68.0 °F 90% 30.04 in 10.0 mi East 4.6 mph - N/A   Clear
4:56 AM 70.0 °F - 68.0 °F 93% 30.04 in 10.0 mi Calm Calm - N/A   Clear
5:46 AM 69.8 °F - 68.0 °F 94% 30.03 in 10.0 mi East 5.8 mph - N/A   Partly Cloudy
5:56 AM 70.0 °F - 68.0 °F 93% 30.05 in 10.0 mi East 5.8 mph - N/A   Mostly Cloudy
6:03 AM 69.8 °F - 68.0 °F 94% 30.03 in 10.0 mi ESE 3.5 mph - N/A   Scattered Clouds
6:14 AM 69.8 °F - 68.0 °F 94% 30.04 in 10.0 mi ESE 4.6 mph - N/A   Mostly Cloudy
6:43 AM 69.8 °F - 69.8 °F 100% 30.04 in 10.0 mi ESE 4.6 mph - N/A   Mostly Cloudy
6:56 AM 71.1 °F - 69.1 °F 93% 30.07 in 10.0 mi ESE 5.8 mph - N/A   Mostly Cloudy
7:22 AM 71.6 °F - 69.8 °F 94% 30.05 in 10.0 mi ESE 3.5 mph - N/A   Mostly Cloudy
7:56 AM 73.0 °F - 71.1 °F 93% 30.07 in 9.0 mi ESE 6.9 mph - N/A   Overcast
8:56 AM 75.0 °F - 71.1 °F 87% 30.09 in 10.0 mi ESE 6.9 mph - N/A   Overcast
9:38 AM 77.0 °F - 71.6 °F 83% 30.06 in 10.0 mi SE 6.9 mph - N/A   Overcast
9:56 AM 78.1 °F - 71.1 °F 79% 30.09 in 10.0 mi Variable 6.9 mph - N/A   Overcast
10:56 AM 77.0 °F - 72.0 °F 84% 30.10 in 10.0 mi ESE 3.5 mph - N/A   Overcast
11:56 AM 79.0 °F - 72.0 °F 79% 30.09 in 10.0 mi SE 4.6 mph - N/A   Overcast
12:32 PM 78.8 °F - 73.4 °F 83% 30.08 in 10.0 mi SSE 5.8 mph - 0.00 in   Overcast
12:56 PM 79.0 °F - 73.0 °F 82% 30.09 in 10.0 mi SSE 9.2 mph - 0.00 in Rain Light Rain
1:17 PM 80.6 °F 85.4 °F 73.4 °F 79% 30.07 in 10.0 mi SSE 6.9 mph - 0.00 in   Mostly Cloudy
1:56 PM 72.0 °F - 68.0 °F 87% 30.09 in 3.0 mi ESE 11.5 mph 20.7 mph 0.05 in Rain Rain
1:59 PM 71.6 °F - 69.8 °F 94% 30.06 in 3.0 mi SE 13.8 mph 23.0 mph 0.03 in Rain , Thunderstorm Heavy Thunderstorms and Rain
2:22 PM 73.4 °F - 71.6 °F 94% 30.05 in 2.5 mi SE 6.9 mph - 0.33 in Rain , Thunderstorm Thunderstorms and Rain
2:30 PM 73.4 °F - 71.6 °F 94% 30.05 in 5.0 mi SSE 5.8 mph - 0.35 in Rain , Thunderstorm Thunderstorms and Rain
2:39 PM 73.4 °F - 71.6 °F 94% 30.04 in 4.0 mi SSE 6.9 mph - 0.37 in Rain , Thunderstorm Light Thunderstorms and Rain
2:56 PM 75.0 °F - 73.0 °F 94% 30.06 in 7.0 mi SSE 4.6 mph - 0.39 in Rain Light Rain
3:09 PM 75.2 °F - 73.4 °F 94% 30.04 in 10.0 mi SE 5.8 mph - 0.00 in   Overcast
3:56 PM 75.9 °F - 73.0 °F 91% 30.04 in 10.0 mi SE 6.9 mph - 0.01 in   Scattered Clouds
3:59 PM 75.2 °F - 71.6 °F 89% 30.02 in 10.0 mi SE 8.1 mph - N/A   Overcast
4:56 PM 77.0 °F - 73.0 °F 88% 30.06 in 10.0 mi Calm Calm - N/A   Overcast
5:12 PM 77.0 °F - 73.4 °F 89% 30.03 in 10.0 mi Calm Calm - N/A   Overcast
5:50 PM 73.4 °F - 71.6 °F 94% 30.03 in 10.0 mi South 3.5 mph - 0.02 in Rain Light Rain
5:56 PM 73.9 °F - 71.1 °F 91% 30.06 in 4.0 mi SSE 11.5 mph 17.3 mph 0.07 in Rain Light Rain
6:02 PM 73.4 °F - 71.6 °F 94% 30.04 in 1.8 mi SE 10.4 mph 17.3 mph 0.09 in Rain Heavy Rain
6:05 PM 73.4 °F - 71.6 °F 94% 30.04 in 1.0 mi SE 6.9 mph 17.3 mph 0.18 in Rain Heavy Rain
6:12 PM 73.4 °F - 71.6 °F 94% 30.04 in 1.0 mi SE 8.1 mph - 0.25 in Rain Heavy Rain
6:17 PM 73.4 °F - 71.6 °F 94% 30.04 in 2.0 mi SE 6.9 mph - 0.26 in Rain Rain
6:25 PM 73.4 °F - 71.6 °F 94% 30.04 in 8.0 mi SSE 5.8 mph - 0.26 in Rain Light Rain
6:56 PM 73.0 °F - 71.1 °F 93% 30.05 in 10.0 mi SE 3.5 mph - 0.27 in Rain Light Rain
7:56 PM 73.0 °F - 71.1 °F 93% 30.02 in 10.0 mi ESE 10.4 mph - N/A   Clear
8:56 PM 73.0 °F - 71.1 °F 93% 30.06 in 10.0 mi Calm Calm - N/A   Clear
9:39 PM 73.4 °F - 71.6 °F 94% 30.05 in 10.0 mi NW 3.5 mph - N/A   Mostly Cloudy
9:56 PM 73.0 °F - 71.1 °F 93% 30.08 in 9.0 mi Calm Calm - N/A   Overcast
10:19 PM 73.4 °F - 71.6 °F 94% 30.06 in 10.0 mi Calm Calm - N/A   Mostly Cloudy
10:56 PM 72.0 °F - 70.0 °F 93% 30.09 in 10.0 mi SE 3.5 mph - N/A   Mostly Cloudy
11:35 PM 73.4 °F - 69.8 °F 88% 30.07 in 10.0 mi ESE 3.5 mph - N/A   Overcast
11:56 PM 73.0 °F - 70.0 °F 90% 30.09 in 10.0 mi Calm Calm - N/A   Overcast